Change the Weather History Date:

Tuesday, May 13, 2014

  Actual Average Record
Temperature  
Mean Temperature 50 °F -  
Max Temperature 55 °F 65 °F 85 °F (1977)
Min Temperature 44 °F 39 °F 23 °F (1997)
Degree Days  
Heating Degree Days 16    
Moisture  
Dew Point 37 °F    
Average Humidity 64    
Maximum Humidity 77    
Minimum Humidity 48    
Precipitation  
Precipitation 0.00 in - - ()
Sea Level Pressure  
Sea Level Pressure 30.00 in    
Wind  
Wind Speed 14 mph (WNW)    
Max Wind Speed 20 mph    
Max Gust Speed 28 mph    
Visibility 10 miles    
Events Rain    
Averages and records for this station are not official NWS values.
T = Trace of Precipitation, MM = Missing Value Source: NWS Daily Summary

Daily Weather History Graph

Daily Weather History Graph

Search for Another Location

Airport or City:

Trip Planner

Search our weather history database for the weather conditions in past years. The results will help you decide how hot, cold, wet, or windy it might be!

Date:

Astronomy

May. 13, 2014 Rise Set
Actual Time 5:45 AM CDT 8:40 PM CDT
Civil Twilight 5:10 AM CDT 9:16 PM CDT
Nautical Twilight 4:25 AM CDT 10:01 PM CDT
Astronomical Twilight 3:31 AM CDT 10:55 PM CDT
Moon 7:39 PM CDT (5/13) 5:08 AM CDT (5/13)
Length of Visible Light 16h 05m
Length of Day
14h 55m
Waxing Gibbous, 99% of the Moon is Illuminated
May 13
Waxing Gibbous
May 14
Full
May 21
Last Quarter
May 28
New
Jun 5
First Quarter

Hourly Weather History & Observations

Time (CDT) Temp. Windchill Dew Point Humidity Pressure Visibility Wind Dir Wind Speed Gust Speed Precip Events Conditions
12:24 AM 48.9 °F - 42.1 °F 77% 29.80 in 8.0 mi NW 13.8 mph 27.6 mph N/A   Overcast
12:53 AM 48.9 °F - 41.0 °F 74% 29.82 in 10.0 mi NW 13.8 mph 25.3 mph N/A   Overcast
1:20 AM 48.0 °F - 39.9 °F 74% 29.80 in 10.0 mi NW 16.1 mph 24.2 mph N/A   Overcast
1:53 AM 46.9 °F - 39.0 °F 74% 29.81 in 10.0 mi NW 12.7 mph - N/A   Overcast
2:53 AM 46.9 °F - 37.9 °F 71% 29.85 in 10.0 mi WNW 10.4 mph - N/A   Overcast
3:53 AM 46.9 °F - 37.0 °F 68% 29.87 in 10.0 mi NW 19.6 mph 26.5 mph N/A   Overcast
4:53 AM 46.9 °F - 36.0 °F 66% 29.88 in 10.0 mi WNW 18.4 mph 24.2 mph N/A   Overcast
5:53 AM 46.9 °F - 36.0 °F 66% 29.90 in 10.0 mi WNW 13.8 mph 27.6 mph N/A   Overcast
6:20 AM 46.0 °F 39.0 °F 39.0 °F 76% 29.89 in 4.0 mi WNW 17.3 mph 24.2 mph 0.00 in Rain Light Rain
6:39 AM 46.0 °F 39.3 °F 37.9 °F 73% 29.90 in 10.0 mi West 16.1 mph 24.2 mph 0.00 in   Overcast
6:46 AM 46.0 °F 40.2 °F 37.0 °F 71% 29.90 in 10.0 mi West 12.7 mph 24.2 mph 0.00 in   Overcast
6:53 AM 46.0 °F 40.2 °F 37.0 °F 71% 29.93 in 8.0 mi WNW 12.7 mph 26.5 mph 0.00 in   Overcast
8:53 AM 46.0 °F 40.6 °F 36.0 °F 68% 29.97 in 9.0 mi NW 11.5 mph 25.3 mph N/A   Overcast
11:53 AM 48.9 °F - 36.0 °F 61% 30.04 in 10.0 mi West 16.1 mph 21.9 mph 0.00 in   Overcast
12:53 PM 50.0 °F - 36.0 °F 59% 30.07 in 10.0 mi WNW 16.1 mph 21.9 mph N/A   Overcast
1:53 PM 48.9 °F - 36.0 °F 61% 30.10 in 10.0 mi WNW 13.8 mph - 0.00 in   Overcast
2:22 PM 50.0 °F - 36.0 °F 59% 30.08 in 10.0 mi WNW 13.8 mph - N/A   Overcast
2:53 PM 50.0 °F - 37.0 °F 61% 30.11 in 10.0 mi WNW 15.0 mph - N/A   Overcast
3:21 PM 51.1 °F - 37.0 °F 59% 30.09 in 10.0 mi WNW 11.5 mph - 0.00 in   Overcast
3:53 PM 52.0 °F - 37.0 °F 57% 30.11 in 10.0 mi West 12.7 mph - 0.00 in   Mostly Cloudy
4:53 PM 51.1 °F - 35.1 °F 54% 30.12 in 10.0 mi West 17.3 mph 25.3 mph 0.00 in   Mostly Cloudy
5:53 PM 53.1 °F - 34.0 °F 48% 30.12 in 10.0 mi West 16.1 mph 25.3 mph N/A   Overcast
6:53 PM 51.1 °F - 37.0 °F 59% 30.13 in 10.0 mi WNW 12.7 mph - 0.00 in   Mostly Cloudy
7:53 PM 50.0 °F - 35.1 °F 57% 30.14 in 10.0 mi West 11.5 mph - N/A   Overcast
8:53 PM 48.9 °F - 32.0 °F 52% 30.15 in 10.0 mi WNW 11.5 mph - N/A   Overcast
9:53 PM 46.9 °F - 33.1 °F 59% 30.16 in 10.0 mi West 6.9 mph - N/A   Partly Cloudy
10:53 PM 46.0 °F 42.5 °F 34.0 °F 63% 30.16 in 10.0 mi West 6.9 mph - N/A   Clear
11:53 PM 44.1 °F 40.8 °F 33.1 °F 65% 30.16 in 10.0 mi WSW 5.8 mph - N/A   Scattered Clouds